Theta_e
336 336 336 337 337 337 338 337 337 336 335 334 333 333 332 332 332 332 333 333 332 333 333 333 334 333 333 332 331 331 332 333 333 332 333 333 334 335 335 336 338 340 342 342 343 344 344 345 344 344 341 339 340 340 340 342 344 345 346 346 345 346 346 347 347 347 347 347 348 347 347 347 347 346
336 337 336 336 337 337 337 337 337 336 335 334 333 333 333 332 331 332 332 332 333 333 334 335 335 334 333 332 332 332 332 332 332 332 331 332 332 332 333 333 334 336 337 339 341 342 344 345 345 344 342 341 341 341 339 340 341 342 344 345 346 346 346 346 346 347 347 347 347 348 347 347 346 346
336 336 336 336 336 336 336 336 336 336 335 334 333 333 333 333 331 331 331 332 333 334 333 334 334 334 333 333 332 332 331 331 331 331 331 331 331 331 331 332 332 333 334 335 337 339 340 342 343 343 343 343 343 342 341 340 340 340 340 342 343 344 344 344 345 346 346 345 346 347 347 346 346 346
336 336 336 336 336 336 336 335 336 335 335 334 333 333 332 333 332 332 332 332 332 333 333 334 335 334 334 333 333 332 331 331 331 331 331 331 331 331 331 331 331 331 331 332 334 335 336 337 338 339 339 340 341 341 341 341 341 341 340 341 341 341 342 342 343 344 343 342 344 345 346 346 346 347
335 335 334 335 335 335 335 335 335 335 334 334 333 332 332 332 332 332 332 332 332 332 332 333 334 335 335 334 333 333 332 332 332 332 332 332 332 332 332 331 331 330 330 329 330 331 333 334 336 336 336 336 337 338 339 340 341 341 341 341 340 340 341 342 343 344 342 341 342 344 346 346 346 346
333 333 333 333 333 332 332 332 333 333 333 333 333 332 332 331 331 332 332 332 332 332 332 332 333 334 334 334 334 333 333 333 333 332 333 333 332 332 332 331 331 331 330 329 329 330 331 331 333 335 335 336 336 336 337 338 338 339 340 341 340 340 341 341 341 342 341 341 342 343 343 344 344 344
332 332 331 331 331 330 329 329 330 331 331 331 331 331 331 331 330 331 331 330 330 330 330 331 331 332 332 333 333 333 333 332 332 332 332 332 332 332 332 332 332 332 331 330 330 331 332 331 332 333 334 334 335 335 336 336 336 337 338 339 340 341 341 339 340 340 340 341 342 343 342 343 343 344
328 330 329 329 330 329 328 328 328 328 329 329 329 328 328 328 327 327 326 326 327 327 327 328 328 328 329 330 330 331 331 331 331 332 332 332 332 332 332 333 332 332 332 331 331 332 333 332 333 333 333 333 333 334 336 336 336 336 336 337 338 341 341 339 339 339 338 340 342 343 344 344 344 344
323 328 328 329 329 329 328 328 327 328 329 329 328 328 326 323 320 319 319 320 321 323 323 324 324 325 325 325 325 326 326 327 327 327 328 329 330 330 331 332 332 332 332 332 332 333 333 333 333 333 333 334 333 333 334 335 334 334 335 338 340 341 341 340 339 338 337 338 341 342 343 344 345 345
320 327 329 328 328 328 328 327 327 328 329 329 329 328 326 322 320 322 322 322 323 323 324 324 324 323 323 323 322 322 323 324 323 323 323 323 323 324 326 328 330 331 331 332 331 331 331 332 332 333 333 334 334 333 333 333 333 333 334 337 339 340 340 340 340 339 337 337 337 339 340 342 343 344
323 327 328 328 328 328 327 327 327 327 328 328 328 327 326 325 326 327 327 326 327 327 327 327 326 325 325 325 325 324 324 325 325 324 324 323 323 322 322 323 323 325 327 328 328 328 329 330 331 333 334 334 334 334 335 334 333 334 334 335 337 338 338 339 340 339 338 338 337 337 338 339 340 341
326 327 328 328 328 328 328 328 328 328 328 328 328 328 327 328 328 328 328 328 328 328 328 328 327 327 327 326 326 326 325 325 325 325 325 325 325 325 324 323 323 322 323 324 323 324 325 326 327 329 331 333 333 334 335 335 335 335 335 335 335 336 337 337 337 337 336 336 336 335 335 336 338 340
323 325 326 326 326 326 328 328 328 328 327 327 327 328 328 328 328 328 328 328 327 327 327 327 327 326 326 326 326 325 325 325 325 325 325 325 325 325 325 325 325 324 324 324 323 323 323 324 324 324 326 330 333 334 334 335 335 336 336 336 336 336 336 336 336 336 336 336 336 336 335 334 335 337
318 321 324 325 325 325 326 326 326 325 324 324 325 327 327 327 327 327 326 326 326 326 326 325 326 325 325 325 325 325 325 325 325 325 325 325 325 325 325 325 325 325 325 325 325 325 325 325 324 322 322 326 331 333 333 333 333 334 335 335 336 335 335 336 335 335 335 335 335 335 336 336 334 334
310 314 317 320 322 322 323 322 321 321 323 325 326 327 327 326 326 325 325 326 326 326 326 326 326 326 326 326 326 326 326 325 325 325 325 325 325 325 326 325 325 325 325 325 326 326 327 327 326 325 324 325 328 331 331 330 330 331 333 334 334 334 334 334 333 333 332 332 332 333 335 337 337 336
305 307 310 312 315 317 318 317 317 318 321 324 325 325 325 325 325 326 326 327 327 327 327 326 326 326 326 326 326 325 325 326 326 326 326 326 325 325 325 325 325 325 324 324 325 325 326 327 328 328 326 326 326 327 327 327 328 329 331 332 333 333 332 332 332 331 331 331 331 332 333 335 337 337
306 308 311 313 315 317 319 321 323 323 324 325 325 326 327 327 327 327 327 327 327 326 326 325 325 325 325 325 325 325 326 326 325 325 325 325 324 324 324 323 323 323 323 323 323 324 325 326 326 328 328 327 326 326 327 327 327 328 328 329 330 330 330 331 332 332 332 331 332 332 333 333 334 335
305 307 311 314 316 316 317 322 326 328 328 328 328 328 327 325 325 325 325 325 325 324 324 324 323 323 323 323 323 323 323 324 324 324 323 323 323 322 322 322 322 322 322 322 323 323 325 325 325 327 328 327 325 325 326 326 327 327 325 326 329 331 330 332 333 333 333 332 332 332 333 332 332 332
302 303 306 310 312 312 313 317 322 325 326 326 326 324 321 319 321 324 324 324 323 322 322 322 322 322 322 321 321 321 321 321 321 321 321 321 322 321 321 321 321 322 322 323 323 323 324 325 325 326 327 326 325 325 325 325 325 325 324 326 330 332 332 332 333 333 334 333 333 332 332 332 332 332
302 302 304 305 307 307 308 310 313 316 317 317 317 314 313 318 324 325 324 324 323 323 323 323 322 322 321 321 321 321 321 321 321 321 321 321 321 321 322 322 322 322 322 323 323 323 324 324 324 324 325 325 325 325 325 325 326 326 327 328 330 331 331 332 332 333 333 333 333 332 331 331 332 332
302 302 302 304 305 306 308 309 310 312 314 313 312 312 316 322 325 325 324 324 324 323 324 324 323 323 322 322 322 322 321 322 322 322 322 322 322 322 323 323 323 323 324 324 324 324 323 323 324 324 325 326 326 327 326 326 327 328 329 329 330 330 331 331 332 333 333 333 333 333 332 332 332 332
303 304 306 309 312 313 315 316 317 318 319 319 319 320 322 324 324 324 324 324 324 324 324 324 324 324 323 323 323 323 323 323 323 323 323 323 323 323 323 324 324 324 325 325 325 325 324 325 325 326 326 327 327 328 328 328 328 328 329 330 332 332 332 332 332 332 332 332 332 332 332 332 332 332
309 313 315 317 319 320 320 321 321 321 322 322 322 323 324 323 324 324 324 324 324 324 324 324 324 324 325 325 325 324 324 324 324 324 325 325 325 325 325 325 325 325 326 326 326 326 326 326 326 326 326 327 327 327 328 329 329 329 330 331 332 333 333 333 332 332 332 332 332 331 331 331 331 331
317 320 321 322 322 323 322 323 323 323 323 323 324 324 324 324 324 324 324 324 324 324 323 323 323 323 324 325 326 325 325 325 325 325 326 326 326 326 326 326 326 326 326 326 326 326 326 326 326 326 326 327 327 327 327 328 329 330 330 330 331 331 331 331 332 331 332 332 332 331 331 331 331 331
322 323 323 324 324 323 324 324 324 324 324 324 324 324 325 325 325 325 325 324 324 324 324 323 323 323 324 325 326 326 326 325 326 326 326 326 326 326 326 326 326 326 326 326 326 326 326 326 326 326 327 327 327 327 327 327 328 329 329 329 329 329 328 328 328 328 329 329 330 330 329 329 329 330
324 324 324 324 323 322 322 322 322 323 323 323 323 323 324 324 324 325 324 325 325 325 324 324 323 323 324 324 325 326 326 326 326 326 326 326 326 326 326 326 326 326 326 326 326 326 326 326 326 326 326 327 327 327 327 327 327 328 328 328 327 327 326 326 326 326 326 327 327 328 328 327 328 328
323 323 323 323 322 321 321 321 320 321 321 321 321 321 321 322 322 322 323 323 323 324 323 324 324 324 323 324 324 325 325 326 326 326 327 327 326 326 326 326 327 327 327 327 327 327 327 327 327 327 327 327 327 327 327 327 327 327 327 326 326 326 326 326 326 326 326 326 328 329 329 330 330 330
322 322 322 321 319 318 318 318 319 319 319 319 319 319 319 319 320 320 320 320 321 321 321 322 322 323 323 323 323 324 324 324 325 326 326 326 326 326 326 326 327 327 327 327 327 327 327 327 327 327 327 327 327 327 327 327 327 327 327 327 326 327 327 327 326 326 326 327 328 329 330 331 331 331
321 321 320 318 318 318 318 318 318 319 318 318 318 318 318 318 318 318 318 319 319 319 319 320 321 321 322 322 322 323 323 323 323 324 325 325 326 326 327 327 327 327 326 326 326 327 327 327 327 327 327 327 328 328 328 328 328 328 327 327 327 327 327 327 327 327 327 327 328 329 330 330 331 331
320 319 317 317 317 318 318 319 319 319 319 319 319 318 318 318 318 317 317 317 318 318 318 318 319 319 320 320 321 321 321 321 321 322 324 325 326 326 327 327 326 327 326 326 326 327 327 327 327 326 327 327 327 328 328 328 328 327 328 327 328 328 328 328 328 328 328 328 329 329 329 330 330 330
318 317 317 317 318 318 319 319 318 318 319 319 319 319 318 318 317 317 316 317 317 316 316 317 318 318 318 319 319 319 320 320 320 320 322 323 324 325 325 326 326 327 326 326 326 327 326 326 326 326 326 327 327 328 328 328 328 328 327 327 328 328 328 328 328 329 328 328 328 329 329 330 330 330
316 316 317 318 319 319 319 318 318 318 319 319 320 320 318 317 317 316 316 317 316 315 315 316 317 317 317 317 317 318 318 318 319 319 320 321 322 322 323 325 326 326 326 326 326 326 327 326 326 326 326 326 327 327 328 328 328 328 328 328 328 328 328 329 329 328 328 328 328 329 329 329 330 330
316 317 318 319 319 320 319 318 318 318 319 320 320 319 317 316 316 316 316 316 316 315 315 316 316 316 316 316 316 316 317 317 317 318 318 319 320 321 322 323 324 325 325 326 326 326 326 327 327 326 326 327 327 328 328 328 328 328 328 328 328 328 328 329 329 328 328 328 329 329 329 329 329 329
318 318 319 319 320 320 319 318 318 318 319 319 318 317 316 316 316 316 316 316 315 315 315 315 315 315 315 315 315 315 315 316 316 316 316 317 318 319 320 321 323 324 324 325 326 326 326 327 327 326 326 326 327 327 327 328 328 328 328 328 328 328 328 328 328 328 328 329 329 329 329 329 329 329
319 319 319 319 320 319 318 318 318 318 317 317 316 315 315 315 316 316 316 316 316 315 316 316 315 315 315 315 315 315 315 316 315 315 315 315 316 317 318 320 321 323 323 324 325 325 326 326 326 326 326 326 326 327 327 327 327 328 328 328 328 328 328 328 328 328 329 329 329 329 329 329 329 329
319 320 320 319 319 318 317 317 317 317 316 316 315 315 315 315 316 316 316 317 317 317 317 317 317 317 316 316 316 316 316 316 315 315 315 315 315 316 316 318 320 321 322 324 324 325 326 325 326 326 326 326 326 328 328 327 327 328 327 328 328 328 328 328 328 328 329 329 329 329 329 329 329 329
319 319 318 317 317 316 316 317 317 317 316 316 315 315 315 315 316 316 317 318 318 318 318 318 318 318 318 317 317 317 317 316 315 315 315 315 315 315 315 316 317 320 322 323 324 325 326 325 325 326 326 326 327 328 328 326 326 327 327 327 328 328 328 328 328 328 328 329 329 329 329 329 329 329
318 317 316 316 315 315 316 317 317 316 316 316 315 315 315 316 317 317 318 318 319 319 319 319 319 319 319 318 318 318 317 317 315 315 315 315 315 315 316 316 316 319 321 323 324 325 325 325 325 326 326 327 328 328 327 326 325 325 327 327 327 327 327 328 328 328 328 328 329 329 329 329 330 330
317 316 316 316 315 315 315 315 316 316 316 315 315 315 316 316 317 318 318 319 319 320 320 321 321 321 320 319 319 318 318 317 316 315 315 315 315 316 317 317 318 319 322 323 324 325 325 325 325 326 326 327 328 327 326 325 324 324 326 327 326 326 327 327 328 328 328 328 329 329 329 329 329 329
316 315 316 316 315 314 314 315 315 316 315 315 315 316 316 317 318 318 318 320 321 321 321 322 322 322 321 321 320 320 318 317 316 315 315 316 316 316 317 318 318 320 322 323 324 324 325 325 326 327 326 327 327 326 325 324 324 324 325 326 326 326 327 328 328 328 328 328 328 329 329 329 329 328
315 315 317 317 315 314 314 314 315 315 315 315 316 316 316 317 318 318 319 320 321 322 322 321 321 322 322 322 321 320 319 318 317 316 315 316 316 316 317 317 318 320 322 323 324 324 325 326 327 327 326 326 326 325 324 324 324 323 325 326 326 326 327 328 328 328 328 327 327 328 328 328 328 328
315 316 317 316 315 314 314 314 314 314 315 316 316 317 317 318 318 318 319 320 321 321 321 321 321 322 323 322 321 321 320 318 317 316 316 315 316 316 316 317 318 320 321 323 323 323 324 325 326 326 326 325 324 324 324 323 322 322 323 324 325 326 327 327 328 328 328 326 326 326 327 327 327 328
315 317 317 316 315 314 313 314 315 315 315 316 316 317 318 318 318 318 319 320 320 320 320 320 321 323 323 323 322 321 320 319 318 317 317 317 317 316 316 317 318 319 321 322 323 323 323 323 325 326 325 324 323 323 323 322 321 321 321 322 323 324 325 325 326 327 327 326 325 326 326 327 327 327
316 318 317 316 315 314 314 314 316 316 316 317 317 317 318 319 319 319 319 319 319 320 319 320 322 323 323 323 323 322 321 320 320 320 319 318 317 317 317 317 319 320 321 322 323 323 322 322 323 324 324 323 322 322 322 321 320 319 319 320 321 322 322 323 324 325 326 325 325 325 326 325 325 325
317 317 317 316 315 314 314 316 317 317 317 317 317 318 318 319 319 319 319 319 319 320 320 320 321 323 324 324 323 323 322 321 321 321 319 318 318 318 319 319 320 321 322 323 323 322 322 322 322 323 323 322 321 320 320 319 318 318 318 319 320 319 321 322 323 325 324 320 319 320 322 323 322 321
Wind_Speed
11 10 9 11 13 13 11 10 9 8 6 6 7 8 9 10 11 12 13 14 14 13 13 15 17 15 13 13 14 15 14 12 12 12 12 13 14 13 13 13 14 16 17 16 19 20 18 15 14 12 11 14 17 16 17 19 21 23 25 26 31 34 35 34 35 34 32 31 31 30 29 29 30 29
8 7 6 7 10 12 13 12 12 11 10 9 9 9 10 11 10 10 11 10 10 10 10 11 14 13 12 13 15 15 14 12 12 12 12 13 13 14 14 14 15 15 14 14 14 16 18 17 16 15 15 16 18 18 18 18 18 19 21 23 26 29 31 32 31 29 28 28 28 27 27 28 28 28
7 8 8 8 9 11 13 14 14 15 14 12 12 12 13 13 11 11 11 8 6 7 8 7 9 10 10 12 13 11 10 11 11 11 12 12 13 14 15 16 17 18 18 18 16 15 16 16 16 16 18 19 21 21 19 18 19 19 20 22 24 25 27 27 25 22 21 22 21 22 23 24 25 25
9 9 10 10 10 12 14 15 16 17 16 16 15 15 15 15 14 13 12 10 8 7 7 8 11 12 12 13 14 12 11 10 10 11 12 13 13 14 15 17 19 21 22 23 22 20 19 17 16 16 16 18 19 20 19 18 20 21 20 20 22 22 24 24 22 20 18 18 18 17 18 19 20 20
10 10 11 12 13 14 14 15 16 17 18 18 18 18 17 16 16 16 15 14 13 11 10 10 11 12 13 14 14 14 13 13 13 13 13 13 14 15 16 18 20 22 23 24 24 25 24 23 21 18 16 16 17 19 19 19 21 22 21 20 20 21 22 22 21 19 18 18 17 16 16 16 16 17
11 11 12 13 15 15 16 15 16 17 18 19 19 20 20 18 17 18 18 18 18 18 17 15 14 13 14 14 15 15 16 16 16 16 16 17 17 18 19 20 21 22 23 24 22 22 23 25 26 24 21 19 19 20 20 21 21 22 21 20 20 21 21 21 19 18 17 17 16 15 15 15 15 15
14 13 12 13 14 14 15 15 15 16 17 17 19 20 21 21 20 20 20 20 21 22 22 21 20 19 18 18 18 19 19 20 20 21 21 22 22 22 21 20 20 21 22 23 21 19 19 21 23 24 25 24 23 23 23 22 22 22 22 21 21 20 20 20 18 16 16 17 16 15 15 16 16 16
13 12 10 9 10 12 13 12 11 12 13 15 16 18 19 20 21 21 21 21 22 23 24 25 25 24 24 24 24 24 25 25 25 24 24 24 24 23 23 22 21 21 21 22 22 21 20 20 20 21 22 22 23 25 26 25 24 23 23 23 22 21 20 20 18 16 16 17 16 15 15 16 16 16
10 10 8 8 9 11 12 10 9 9 11 12 14 16 17 18 20 20 20 21 21 22 24 25 26 25 25 26 26 26 27 28 28 28 27 26 25 24 23 22 22 21 21 21 21 21 21 21 22 22 21 18 19 22 25 27 27 25 24 23 22 22 21 21 20 19 18 17 17 17 16 16 16 16
7 8 8 8 8 10 11 11 10 10 12 13 15 18 20 20 19 18 18 19 20 21 22 23 24 24 24 25 25 24 24 25 26 26 26 26 25 25 24 24 23 22 22 21 21 21 20 19 20 22 22 19 17 18 21 24 26 26 25 24 22 22 22 22 23 22 21 19 18 18 17 17 17 17
4 6 6 7 8 9 10 11 11 12 14 15 17 19 20 20 19 19 20 20 20 21 22 23 24 25 24 24 24 23 22 23 24 24 25 25 23 23 24 24 25 25 25 24 22 21 20 19 18 19 21 21 19 17 17 19 22 23 23 22 22 22 22 23 23 22 21 20 19 18 18 18 18 18
4 5 6 7 8 9 9 10 12 13 14 16 17 18 18 18 18 19 19 19 20 21 23 25 25 26 27 27 27 27 27 28 27 26 27 28 27 25 25 24 24 24 25 26 25 24 22 21 20 19 19 20 19 18 17 17 18 19 20 20 20 21 21 21 21 21 21 21 21 20 20 20 20 19
6 7 8 9 10 11 11 12 12 13 14 16 18 19 19 18 19 19 18 19 21 23 25 27 27 29 30 31 31 31 31 31 31 29 29 30 30 30 29 27 23 22 23 25 25 25 24 24 24 22 20 19 17 17 17 18 18 18 18 18 18 18 18 19 20 20 20 20 21 21 20 20 21 21
9 9 9 10 11 13 14 15 16 17 17 18 19 20 19 19 19 20 21 21 22 24 26 27 28 29 31 32 31 31 32 31 30 29 29 30 31 32 32 31 26 23 22 23 23 23 22 22 23 23 22 20 17 16 15 16 17 18 19 19 19 19 19 19 19 19 19 20 20 19 19 19 19 21
12 12 13 13 15 16 18 19 19 19 18 18 18 20 20 20 21 22 24 24 24 25 26 28 28 29 31 32 30 29 30 29 28 28 28 29 29 30 32 33 30 26 24 24 25 23 20 19 21 21 21 20 19 18 16 15 15 16 18 19 20 20 21 20 20 19 19 20 20 19 18 17 17 18
12 13 14 14 15 16 18 19 19 18 17 18 19 20 21 21 22 23 23 25 25 26 27 28 29 29 30 31 29 27 27 27 26 26 26 27 28 29 31 34 34 31 28 28 29 27 23 20 20 20 19 19 20 20 19 17 16 15 16 17 17 17 18 18 18 18 17 17 17 17 16 16 16 16
12 12 12 12 12 14 15 16 16 16 16 16 18 19 20 21 22 22 22 22 23 24 26 27 28 28 28 29 28 26 26 27 27 28 28 28 29 30 32 34 36 35 32 30 31 32 28 23 22 22 18 17 18 19 19 18 17 16 16 16 17 17 17 17 17 17 17 16 15 14 13 13 14 15
14 13 13 14 14 14 15 14 14 15 16 17 18 19 21 22 22 21 20 19 20 20 21 23 24 25 24 25 26 25 25 27 28 28 28 28 28 29 31 32 34 33 30 26 27 31 30 25 24 23 19 17 18 18 18 19 18 18 17 16 15 17 17 17 17 17 17 16 14 13 12 12 13 14
18 16 15 15 15 15 14 13 13 15 18 19 20 22 23 22 18 15 14 15 14 14 13 14 16 17 18 20 21 21 22 23 24 25 25 25 26 28 28 28 29 28 24 20 20 26 29 26 24 24 22 20 20 18 17 18 18 18 17 15 14 16 17 18 18 17 17 17 16 16 15 14 14 14
21 18 15 15 15 14 14 13 14 15 17 19 21 22 21 18 13 10 11 11 10 9 9 10 11 13 14 15 16 16 17 18 18 19 20 20 21 22 23 23 23 22 20 17 16 20 24 23 23 24 23 22 21 18 16 15 14 13 13 12 14 15 17 18 18 18 17 17 17 17 17 17 16 15
20 17 15 14 14 14 13 13 14 14 16 18 19 19 18 14 10 9 9 9 7 7 7 8 9 10 10 10 10 10 11 11 12 14 16 16 15 17 18 19 20 19 17 14 13 16 19 18 17 19 20 19 18 16 14 12 11 11 10 11 13 14 14 15 17 18 18 18 18 18 18 18 18 18
19 16 14 13 13 13 13 13 14 15 16 17 17 16 15 13 10 9 10 9 8 7 7 7 7 8 8 8 8 7 8 8 9 12 13 12 12 13 14 15 17 17 15 11 9 11 13 12 10 13 16 16 15 13 11 10 10 11 11 11 11 11 11 12 13 15 17 18 19 19 19 19 19 20
15 14 12 12 13 13 14 14 14 16 17 17 16 15 14 13 11 11 11 10 10 10 10 9 8 7 7 8 8 7 5 5 6 9 10 10 10 11 11 12 14 16 14 10 8 8 9 9 9 12 14 14 14 11 8 8 9 10 11 12 12 12 12 12 12 13 14 15 16 17 18 18 18 19
14 13 12 12 13 14 14 14 14 15 16 16 16 15 16 16 15 14 13 12 12 13 12 11 10 9 8 10 10 8 6 4 5 7 8 9 10 11 11 11 12 13 13 11 9 9 10 10 10 10 11 13 14 13 10 8 9 10 11 12 12 13 14 15 15 15 15 15 15 16 16 16 16 17
15 14 13 13 13 14 14 14 13 13 14 15 15 15 16 16 17 18 18 16 15 14 14 13 12 10 9 11 11 9 8 7 7 7 8 9 10 11 12 12 13 13 11 9 8 9 11 11 10 10 11 12 14 15 13 11 9 10 11 12 13 13 14 15 16 16 17 18 18 18 18 17 17 16
15 14 13 13 14 15 15 15 14 14 15 15 15 15 15 16 17 18 19 18 16 16 15 14 12 10 9 10 10 9 9 9 9 10 10 10 11 12 12 12 14 14 11 8 8 10 11 12 11 11 12 12 13 14 15 12 9 8 10 11 11 11 11 12 13 14 15 16 17 18 18 18 18 18
14 14 14 15 17 18 18 18 17 16 16 16 16 16 16 16 17 17 17 16 15 15 14 13 12 11 11 10 10 10 10 11 11 11 11 12 12 12 12 12 13 13 11 10 10 11 13 13 12 11 12 12 13 14 14 12 9 7 8 8 8 8 8 10 11 12 12 13 14 15 16 16 17 18
14 15 16 18 20 21 20 19 18 17 17 16 16 16 16 16 16 17 17 16 16 15 15 14 14 13 13 13 12 11 12 12 13 12 12 12 12 12 13 12 11 11 10 10 10 11 12 12 11 10 11 12 13 14 14 12 9 7 8 8 6 6 7 8 10 11 12 12 12 13 14 14 15 16
16 16 18 19 19 20 20 20 19 19 18 17 17 18 18 18 17 17 17 16 15 15 15 14 14 14 14 14 13 13 13 13 14 13 13 11 11 11 12 12 11 11 10 9 10 9 8 7 7 8 9 10 11 13 13 13 11 10 10 10 9 8 7 8 10 11 11 12 11 12 12 13 14 15
17 17 19 21 21 22 23 23 23 22 21 20 20 21 22 22 22 20 17 15 14 14 14 14 14 13 14 14 13 13 12 13 13 14 13 12 11 10 11 11 12 12 10 9 9 8 7 7 6 7 8 8 9 11 12 13 15 13 12 12 12 10 7 7 9 9 10 10 10 10 11 12 13 14
18 18 21 23 24 24 24 25 26 25 24 23 22 23 24 26 26 23 18 15 14 15 14 13 13 13 14 14 14 13 13 12 13 13 13 13 12 11 10 10 10 11 10 8 7 7 6 6 5 7 8 9 10 10 10 12 14 14 12 12 12 11 9 8 8 8 9 10 9 9 10 10 11 12
18 20 23 25 26 25 24 26 27 26 25 24 23 24 26 28 27 24 19 15 15 15 13 12 13 13 13 13 13 14 14 14 13 13 12 12 12 11 10 10 10 10 10 8 7 6 5 5 5 7 8 9 10 11 11 11 12 12 12 11 12 12 11 10 9 8 9 10 9 8 9 9 10 10
21 24 26 27 26 25 26 28 28 27 25 24 23 24 27 28 27 24 20 16 15 14 13 12 13 13 12 11 12 13 14 14 14 14 13 13 12 11 11 10 10 11 10 8 6 6 5 6 6 7 7 8 9 10 11 11 10 10 11 11 11 10 10 10 10 9 9 9 8 8 8 9 9 10
25 27 28 28 26 26 29 30 28 26 26 25 25 26 28 27 25 22 19 16 14 14 13 12 12 12 12 12 12 13 13 13 12 13 13 13 13 12 11 10 9 9 9 8 7 6 6 7 8 8 7 7 9 10 10 9 9 8 9 9 9 9 8 9 9 9 8 8 7 8 9 9 8 9
28 29 29 28 28 30 31 29 26 26 27 27 27 27 27 25 23 20 17 15 14 14 14 13 12 12 11 11 11 11 11 10 10 9 10 11 12 13 13 11 8 7 7 7 7 6 6 7 9 8 7 7 9 9 9 9 8 7 7 7 7 6 6 7 8 8 7 7 7 8 9 9 8 8
28 29 29 30 31 31 30 27 26 27 28 28 28 27 26 24 21 18 16 15 14 14 14 14 13 12 11 11 11 10 9 9 8 8 7 7 8 10 11 12 10 5 4 5 5 5 6 7 8 8 7 6 7 8 9 9 8 6 6 6 5 4 5 6 6 6 6 5 4 6 7 8 8 7
29 30 31 31 31 30 28 27 27 28 28 28 27 26 25 23 19 15 13 13 13 13 13 13 13 12 12 12 11 10 9 8 8 6 5 5 6 6 7 10 11 8 4 4 5 6 6 6 7 7 5 4 5 7 8 8 8 7 5 4 4 3 3 2 3 4 5 4 3 4 6 7 6 4
31 32 32 32 31 30 28 27 28 28 27 28 27 26 23 19 15 12 11 12 13 14 14 13 13 13 12 12 11 10 9 8 6 5 5 5 4 2 1 4 8 9 6 4 5 6 6 5 5 5 4 3 4 6 6 6 6 5 4 4 3 1 2 2 2 2 3 3 2 3 3 2 2 3
32 33 33 34 35 34 31 28 26 26 26 27 26 24 20 16 12 11 11 13 14 14 14 14 14 15 15 12 11 10 8 7 5 4 3 2 1 1 2 1 6 9 8 5 4 4 4 4 5 4 4 3 3 4 4 2 2 5 5 4 3 5 6 4 2 0 1 2 3 3 3 5 6 5
33 32 33 36 38 37 35 30 25 24 26 25 22 19 15 12 11 11 12 13 14 14 15 15 17 18 17 14 13 11 8 6 5 3 1 1 0 2 1 1 5 10 9 5 4 3 4 5 5 3 2 2 1 1 1 2 5 7 6 5 7 8 7 6 5 3 2 5 7 6 6 8 7 6
33 32 33 37 38 38 37 33 27 25 25 21 18 16 13 11 10 9 10 12 13 14 16 18 19 18 16 14 13 12 8 5 4 2 0 1 1 2 1 2 7 10 8 6 4 3 4 6 5 3 1 2 3 3 4 6 9 11 11 10 10 9 7 6 6 6 5 4 6 6 8 8 7 7
31 31 33 37 38 38 37 34 29 26 22 19 16 15 14 12 9 6 7 10 12 14 17 19 19 19 16 13 12 11 8 6 6 4 4 3 3 3 2 4 8 9 7 6 5 3 3 6 7 5 5 6 5 4 7 11 14 15 15 14 12 10 8 6 4 4 6 6 5 7 10 9 8 10
29 31 34 37 38 38 37 35 30 24 20 17 15 14 13 13 11 9 9 10 12 15 18 18 18 19 17 14 12 12 10 9 8 8 7 7 6 5 4 6 8 7 5 5 5 4 6 10 10 8 8 8 5 5 10 15 17 19 19 18 16 14 11 9 7 7 8 8 5 5 6 4 5 10
28 31 34 37 38 39 37 34 29 24 19 17 15 14 13 14 15 15 13 12 14 17 17 15 17 20 19 15 12 13 13 12 10 10 10 10 10 9 9 9 8 6 3 3 6 10 14 15 12 8 8 9 9 10 15 18 19 22 24 22 21 21 19 16 12 10 11 12 11 9 10 10 11 14
27 30 33 36 39 40 38 33 29 24 20 18 16 15 15 16 17 17 17 16 16 16 15 14 16 20 21 17 14 12 13 13 12 12 12 14 14 13 12 10 7 5 4 5 11 17 18 15 12 9 9 12 14 15 17 19 21 24 25 24 24 25 23 20 17 16 19 24 23 20 20 21 20 21
Wind_Direction
283 283 278 273 272 276 285 295 308 312 299 283 290 307 318 324 332 334 320 308 308 310 307 303 300 298 299 303 310 306 294 288 289 290 293 295 299 302 303 303 295 293 297 291 280 277 272 266 266 268 276 280 282 287 286 280 276 277 276 272 268 267 267 266 265 264 266 267 267 267 267 266 265 264
281 278 273 271 270 271 275 285 297 301 294 284 287 299 309 312 324 339 331 319 319 317 313 312 304 296 295 299 305 305 294 286 287 289 293 297 299 300 299 299 298 297 302 302 292 284 277 269 264 263 266 274 281 286 286 282 281 282 282 278 275 274 272 270 268 267 267 266 267 269 269 266 264 262
273 270 272 276 277 274 273 278 288 293 291 288 288 292 299 304 311 324 328 322 315 308 300 292 285 280 284 286 287 290 286 282 283 285 290 293 293 294 293 292 293 290 287 288 288 287 283 275 267 265 265 267 271 277 280 280 280 281 280 279 278 278 277 276 276 275 272 271 273 273 270 267 266 265
271 273 275 275 274 273 273 276 281 284 284 286 287 290 295 299 299 302 310 311 300 291 281 266 262 263 269 273 273 274 271 267 267 269 274 279 281 285 288 290 292 290 285 282 279 278 278 276 273 270 268 267 266 267 268 269 274 276 276 278 280 280 279 279 278 277 274 274 278 278 273 269 268 266
271 276 279 277 275 276 278 279 278 277 277 278 282 287 293 297 297 296 302 307 300 288 278 270 264 261 262 264 264 265 264 260 259 259 262 268 274 279 283 286 288 289 289 286 281 277 273 272 271 270 268 267 266 266 266 265 267 269 270 273 278 281 283 284 283 282 279 275 276 279 277 272 268 264
270 273 278 282 282 282 283 282 280 279 279 278 279 283 290 295 298 298 299 303 303 296 287 280 273 267 264 265 264 265 268 271 270 268 267 270 275 279 281 283 283 285 287 288 284 279 275 271 268 267 265 262 260 261 264 266 267 267 265 266 271 279 286 289 290 289 285 280 278 279 276 273 269 264
270 274 279 286 290 291 290 288 285 286 287 287 285 284 288 293 297 298 298 299 301 301 297 291 286 281 276 274 274 274 277 281 282 280 279 279 282 284 284 282 281 281 284 285 281 278 278 274 270 269 267 264 261 258 258 263 267 267 265 265 269 276 284 288 293 296 290 284 282 280 277 274 271 267
269 276 281 290 304 308 308 304 297 295 297 298 296 292 289 291 295 298 300 301 302 303 301 298 296 293 289 285 283 283 284 284 284 285 285 284 284 284 283 280 278 277 279 281 280 278 278 276 275 274 271 267 265 261 257 259 265 267 266 266 269 273 278 284 289 294 291 287 285 282 277 274 271 271
266 267 275 289 308 313 314 313 308 312 316 312 308 304 300 300 301 302 303 303 303 303 303 301 300 299 297 293 291 290 291 289 287 286 284 284 285 284 281 279 277 276 276 276 277 279 279 277 275 274 273 271 269 266 262 261 263 265 265 263 263 267 273 279 281 283 284 284 282 280 276 272 267 266
264 259 274 292 306 312 314 311 307 313 317 311 307 306 306 310 313 314 313 311 309 307 306 304 302 300 300 299 296 295 296 298 298 296 292 288 288 287 284 280 278 278 278 278 278 279 282 282 278 273 271 272 274 273 269 265 265 265 264 260 258 261 267 273 276 278 280 281 279 275 273 271 267 263
264 260 280 295 301 306 313 313 309 310 308 305 304 304 306 311 313 313 314 314 312 308 305 304 303 303 303 302 301 301 302 303 304 306 304 299 295 291 288 286 283 281 278 278 278 278 281 284 284 279 274 274 277 275 272 271 269 267 265 260 258 259 261 265 269 272 274 275 275 272 268 266 265 263
236 250 269 283 289 292 301 306 304 303 303 302 300 300 302 304 303 302 303 303 302 300 301 301 303 304 303 302 302 303 304 305 304 305 306 305 302 298 295 293 292 289 283 280 278 277 278 280 282 281 277 277 278 273 268 268 269 268 267 263 259 258 257 259 264 267 270 272 275 274 270 265 263 262
251 263 274 281 284 282 283 286 283 285 292 293 291 293 296 297 297 296 296 296 296 296 297 297 299 301 299 299 301 302 302 304 305 304 303 303 302 300 298 296 295 295 291 287 283 280 278 277 277 278 278 279 279 275 269 267 267 267 267 265 263 260 260 261 264 268 272 274 275 275 273 267 263 261
278 279 278 281 281 277 277 278 278 282 285 284 284 289 293 295 297 298 298 297 297 296 296 295 297 297 296 296 299 300 300 301 301 301 300 300 299 299 298 296 292 292 294 293 289 284 283 281 278 275 275 276 275 274 271 270 270 270 269 269 268 268 270 270 270 271 272 273 272 273 274 271 265 260
296 290 284 281 280 279 280 280 281 283 281 278 279 281 284 288 292 296 297 298 298 297 296 295 295 294 294 295 297 297 297 297 296 296 295 295 296 297 297 296 293 291 294 297 295 289 288 289 285 278 272 270 270 271 273 275 275 272 271 271 270 270 271 271 271 271 270 269 268 268 269 270 268 265
302 297 293 288 285 285 285 283 283 281 279 279 280 281 283 286 287 289 292 294 295 295 294 293 292 291 291 293 294 295 295 294 293 292 291 291 293 293 292 291 290 290 293 296 295 290 288 290 291 286 278 273 272 270 271 273 274 272 269 267 266 267 268 267 266 265 263 261 263 265 266 266 266 266
317 308 305 304 304 302 297 293 292 290 289 288 289 289 290 290 290 291 292 292 293 292 291 290 289 289 289 288 289 289 288 288 288 289 289 290 290 290 289 288 288 289 292 295 294 290 286 288 290 289 287 286 281 274 271 268 266 266 267 265 261 261 262 261 258 257 255 252 253 260 268 271 269 266
338 325 318 317 317 314 308 303 301 300 299 296 295 296 295 296 299 299 295 293 292 290 288 287 288 289 288 287 286 286 284 284 286 288 289 291 291 291 290 291 291 292 294 297 295 288 284 285 288 286 287 292 289 280 274 268 262 260 264 265 260 256 255 253 252 252 252 249 248 253 261 272 276 273
347 338 327 321 319 318 315 310 304 300 298 297 297 297 298 304 310 309 304 304 303 299 295 295 299 301 298 292 287 285 284 284 285 288 289 290 291 291 291 291 292 294 297 298 293 285 281 282 286 286 286 291 293 285 273 266 262 259 259 260 260 258 255 252 251 252 253 251 250 251 255 259 265 270
348 344 337 330 324 319 315 309 301 297 297 297 298 299 303 312 321 320 319 321 319 317 321 324 325 324 319 309 298 290 287 287 288 290 290 290 291 292 293 294 295 298 301 297 289 284 281 280 283 284 285 290 294 287 274 266 263 261 260 263 266 266 263 259 255 254 254 252 248 250 254 256 257 261
345 342 338 331 324 320 319 317 312 310 310 308 306 307 312 320 327 325 325 326 320 319 330 335 331 327 326 324 318 308 300 297 297 295 293 296 298 295 294 296 299 303 307 304 294 284 281 282 283 282 283 288 292 292 286 278 272 272 274 274 272 270 268 264 259 255 255 253 251 252 255 257 256 258
343 344 344 342 340 338 337 334 331 329 325 321 320 321 322 326 329 324 320 317 312 310 314 315 314 315 314 315 321 320 311 305 298 293 297 303 304 297 294 296 300 303 309 314 300 279 279 288 292 288 287 287 286 290 296 289 272 266 267 262 258 260 261 260 257 254 253 253 253 253 254 256 258 260
355 2 3 359 354 348 342 338 336 332 327 325 324 323 323 325 328 324 317 314 310 305 305 302 296 292 292 298 305 306 300 295 288 289 299 305 302 301 304 306 305 303 306 317 317 297 292 296 293 292 297 295 286 284 292 287 266 256 257 254 251 255 259 259 257 254 251 251 251 251 252 254 256 259
10 12 9 5 1 357 353 347 342 335 329 324 320 317 315 316 316 313 310 308 306 304 304 304 297 286 278 284 293 291 279 274 273 281 296 304 304 308 312 312 308 302 303 314 319 308 300 295 291 294 299 298 293 291 289 281 265 255 257 258 257 260 263 263 261 259 256 253 251 250 251 252 254 256
12 11 12 14 12 9 5 358 350 342 335 328 323 319 315 311 308 306 304 302 299 298 301 303 303 299 285 280 286 287 278 273 272 277 290 303 309 312 312 310 306 302 305 314 310 300 297 296 297 299 297 293 294 295 290 280 267 258 258 261 264 267 268 269 268 266 261 257 254 254 255 255 253 252
12 14 16 13 6 1 356 350 344 338 333 330 327 325 321 315 310 309 310 309 302 298 301 302 302 306 301 290 291 295 292 286 281 280 285 293 299 302 303 302 299 300 306 310 300 294 294 295 296 298 298 297 296 294 290 284 276 264 260 264 270 273 276 276 274 271 265 257 252 250 250 250 250 249
12 12 10 5 359 356 352 348 345 341 337 334 332 329 325 321 316 315 317 317 312 309 310 309 308 314 315 306 302 305 306 302 293 285 283 285 288 290 292 294 293 294 300 301 293 287 285 287 292 295 295 296 293 289 288 288 285 274 266 267 272 275 278 279 278 275 268 260 251 245 243 241 241 243
8 6 6 4 3 2 360 358 358 356 352 349 345 342 336 330 324 319 317 318 317 315 315 314 312 312 313 310 307 306 308 308 303 296 289 285 282 281 281 282 283 288 295 300 297 290 282 281 287 291 291 293 290 285 286 289 289 283 279 277 275 275 280 286 286 282 273 265 259 254 249 243 239 241
10 9 10 9 9 9 8 6 5 4 2 360 358 357 353 347 339 330 322 318 316 313 312 309 306 304 303 303 301 299 301 302 302 300 295 289 284 279 275 275 275 278 288 298 301 299 290 282 284 289 294 296 290 285 286 287 284 282 283 283 280 278 284 293 294 287 276 269 265 263 261 256 250 249
19 19 15 12 11 11 9 6 4 2 1 359 359 359 357 354 350 344 334 325 317 312 308 302 298 297 297 296 295 293 294 294 293 293 291 287 284 281 280 280 279 278 279 282 286 289 285 278 281 292 298 297 289 285 285 284 281 280 279 281 282 281 282 289 293 290 281 275 271 270 271 266 257 253
23 21 13 9 7 6 4 2 359 358 356 353 351 353 352 351 349 347 342 331 321 316 312 304 297 293 291 291 291 288 287 288 288 288 287 284 282 280 277 277 282 284 282 274 269 269 269 268 277 293 298 297 293 291 287 284 284 285 283 281 280 277 274 279 286 287 283 279 275 271 270 266 260 256
19 13 8 5 2 1 359 357 356 355 353 349 346 346 347 345 344 344 343 335 325 323 320 313 306 300 294 290 287 284 283 283 282 282 280 279 280 281 277 272 274 280 284 279 264 249 249 261 273 283 291 295 296 295 290 286 288 290 287 281 276 271 269 272 278 282 282 277 272 269 267 262 259 258
11 8 5 2 359 356 354 353 354 353 351 348 345 342 342 342 342 343 344 338 331 331 330 324 319 316 309 300 293 289 287 283 278 275 271 269 271 274 276 275 272 272 276 279 270 255 250 256 263 271 284 294 298 297 292 288 287 287 284 282 278 270 263 263 269 276 279 276 269 266 267 263 257 256
9 5 2 360 356 352 351 352 354 352 350 349 346 341 341 341 342 343 344 343 341 340 336 329 325 322 319 313 307 303 300 295 286 277 268 263 261 260 263 268 271 270 271 270 271 274 266 256 259 266 274 286 298 302 297 290 286 285 290 293 289 275 259 252 259 269 278 279 271 263 265 267 263 257
8 4 0 357 353 350 351 354 356 353 350 348 345 343 343 343 344 345 345 345 347 346 343 340 336 331 327 323 319 316 314 308 301 291 278 266 259 253 250 251 254 265 272 266 264 271 264 250 252 258 262 282 301 305 299 295 291 290 298 302 293 276 254 245 251 264 277 279 268 259 262 270 273 266
6 2 358 354 351 351 354 356 354 351 349 348 348 347 346 346 347 346 345 348 354 356 354 353 351 347 344 338 332 327 322 314 311 311 302 285 272 257 244 237 232 237 267 268 256 256 253 243 238 239 250 281 297 288 285 293 300 304 311 310 294 274 260 252 252 260 272 273 262 257 262 271 279 280
4 1 358 355 353 354 356 354 350 348 349 349 350 349 347 347 347 347 349 0 9 7 3 1 360 358 355 349 345 342 336 325 317 315 314 310 302 282 248 232 220 211 226 258 246 239 242 237 226 224 234 262 278 273 277 290 300 307 324 329 307 285 279 263 227 230 254 264 253 251 260 265 265 264
7 3 2 2 2 1 358 352 348 348 349 348 348 348 347 348 350 353 4 16 17 10 5 5 3 1 357 350 346 347 345 341 330 316 311 313 308 297 245 218 203 188 189 231 238 230 232 226 213 213 219 231 263 277 278 285 301 325 356 0 347 29 69 76 125 196 271 286 243 230 246 245 224 209
8 6 7 10 11 9 3 356 353 352 349 346 346 349 350 353 359 9 21 26 19 9 5 5 4 7 9 4 355 349 347 351 349 324 302 306 283 150 113 155 178 170 169 194 220 221 220 205 191 193 204 219 260 278 270 270 22 33 30 26 63 102 102 92 87 24 287 229 199 191 159 131 116 107
8 8 9 10 10 10 8 4 1 355 350 350 355 2 5 6 10 21 29 26 16 9 9 9 7 10 17 19 11 3 357 359 1 343 307 360 119 159 123 123 164 162 158 165 187 196 191 177 170 175 207 223 238 257 216 114 84 74 64 69 97 113 112 95 75 60 114 168 178 172 155 141 117 92
8 10 11 10 10 9 9 8 5 358 357 5 17 24 24 15 13 27 33 23 15 13 12 10 7 9 19 24 17 9 7 8 9 13 85 63 130 163 142 150 163 158 149 144 153 167 168 158 154 155 132 112 112 123 128 108 92 86 80 80 97 115 117 101 81 66 79 136 183 167 138 129 118 109
9 12 13 11 11 10 9 9 7 3 8 21 28 30 27 17 12 28 34 25 22 15 7 5 6 9 18 25 17 12 20 32 39 58 85 94 106 116 123 155 157 149 141 137 130 108 125 143 147 143 118 105 102 117 115 104 95 91 86 83 90 105 111 113 120 112 101 112 141 128 111 108 113 116
12 16 14 12 13 11 9 11 11 11 18 27 27 28 30 24 22 28 25 19 18 10 4 6 10 13 20 30 31 30 38 47 54 64 73 80 88 94 106 131 139 137 136 133 119 119 147 149 145 136 115 104 100 110 111 106 102 99 94 90 91 97 100 105 126 146 137 126 118 100 89 98 127 121
16 18 16 14 15 12 10 13 16 19 26 30 28 30 34 33 33 34 28 19 14 12 12 16 19 21 27 36 43 45 47 49 56 67 75 80 86 92 101 114 126 126 110 106 133 150 156 153 147 136 112 106 113 116 112 109 105 100 98 98 98 99 100 102 113 131 123 103 89 82 84 92 105 108
20 21 18 16 15 14 13 16 21 25 31 34 33 35 38 38 38 36 32 27 24 25 28 26 24 28 32 35 40 50 51 50 57 71 84 91 93 95 101 110 115 105 94 124 147 152 152 147 139 128 115 116 122 119 114 111 106 101 100 100 98 98 99 101 108 112 99 86 82 87 93 96 98 99